Time,TemperatureF,DewpointF,PressureIn,WindDirection,WindDirectionDegrees,WindSpeedMPH,WindSpeedGustMPH,Humidity,HourlyPrecipIn,Conditions,Clouds,dailyrainin,SoftwareType,DateUTC
2013-04-23 00:03:00,47.0,-99.9,30.39,ENE,60,29.0,35.0,-999,-99.99,,,-99.99,,2013-04-23 04:03:00,
2013-04-23 00:13:00,48.0,-99.9,30.39,ENE,64,27.0,34.0,-999,-99.99,,,-99.99,,2013-04-23 04:13:00,
2013-04-23 00:23:00,48.0,-99.9,30.39,ENE,67,28.0,35.0,-999,-99.99,,,-99.99,,2013-04-23 04:23:00,
2013-04-23 00:33:00,47.0,-99.9,30.39,ENE,63,30.0,34.0,-999,-99.99,,,-99.99,,2013-04-23 04:33:00,
2013-04-23 00:44:00,48.0,-99.9,30.39,ENE,72,25.0,29.0,-999,-99.99,,,-99.99,,2013-04-23 04:44:00,
2013-04-23 00:53:00,48.0,-99.9,30.37,ENE,68,28.0,33.0,-999,-99.99,,,-99.99,,2013-04-23 04:53:00,
2013-04-23 01:02:00,48.0,-99.9,30.37,ENE,70,29.0,34.0,-999,-99.99,,,-99.99,,2013-04-23 05:02:00,
2013-04-23 01:12:00,48.0,-99.9,30.37,ENE,63,27.0,32.0,-999,-99.99,,,-99.99,,2013-04-23 05:12:00,
2013-04-23 01:22:00,47.0,-99.9,30.37,ENE,62,28.0,32.0,-999,-99.99,,,-99.99,,2013-04-23 05:22:00,
2013-04-23 01:33:00,47.0,-99.9,30.37,ENE,67,27.0,32.0,-999,-99.99,,,-99.99,,2013-04-23 05:33:00,
2013-04-23 01:43:00,48.0,-99.9,30.37,ENE,65,27.0,34.0,-999,-99.99,,,-99.99,,2013-04-23 05:43:00,
2013-04-23 01:52:00,48.0,-99.9,30.36,ENE,63,26.0,32.0,-999,-99.99,,,-99.99,,2013-04-23 05:52:00,
2013-04-23 02:02:00,47.0,-99.9,30.36,ENE,64,28.0,32.0,-999,-99.99,,,-99.99,,2013-04-23 06:02:00,
2013-04-23 02:12:00,47.0,-99.9,30.36,ENE,59,26.0,31.0,-999,-99.99,,,-99.99,,2013-04-23 06:12:00,
2013-04-23 02:22:00,47.0,-99.9,30.35,ENE,61,25.0,28.0,-999,-99.99,,,-99.99,,2013-04-23 06:22:00,
2013-04-23 02:33:00,47.0,-99.9,30.35,ENE,59,24.0,28.0,-999,-99.99,,,-99.99,,2013-04-23 06:33:00,
2013-04-23 02:42:00,47.0,-99.9,30.35,ENE,62,26.0,30.0,-999,-99.99,,,-99.99,,2013-04-23 06:42:00,
2013-04-23 02:52:00,47.0,-99.9,30.34,ENE,62,26.0,31.0,-999,-99.99,,,-99.99,,2013-04-23 06:52:00,
2013-04-23 03:02:00,47.0,-99.9,30.34,ENE,61,28.0,32.0,-999,-99.99,,,-99.99,,2013-04-23 07:02:00,
2013-04-23 03:11:00,47.0,-99.9,30.33,ENE,59,23.0,28.0,-999,-99.99,,,-99.99,,2013-04-23 07:11:00,
2013-04-23 03:22:00,47.0,-99.9,30.33,ENE,63,27.0,31.0,-999,-99.99,,,-99.99,,2013-04-23 07:22:00,
2013-04-23 03:32:00,47.0,-99.9,30.32,ENE,62,26.0,31.0,-999,-99.99,,,-99.99,,2013-04-23 07:32:00,
2013-04-23 03:42:00,47.0,-99.9,30.32,NE,52,26.0,31.0,-999,-99.99,,,-99.99,,2013-04-23 07:42:00,
2013-04-23 03:52:00,47.0,-99.9,30.31,ENE,62,26.0,30.0,-999,-99.99,,,-99.99,,2013-04-23 07:52:00,
2013-04-23 04:02:00,46.0,-99.9,30.31,ENE,57,30.0,33.0,-999,-99.99,,,-99.99,,2013-04-23 08:02:00,
2013-04-23 04:11:00,47.0,-99.9,30.31,ENE,63,28.0,33.0,-999,-99.99,,,-99.99,,2013-04-23 08:11:00,
2013-04-23 04:22:00,46.0,-99.9,30.31,NE,56,29.0,32.0,-999,-99.99,,,-99.99,,2013-04-23 08:22:00,
2013-04-23 04:32:00,46.0,-99.9,30.31,ENE,60,28.0,33.0,-999,-99.99,,,-99.99,,2013-04-23 08:32:00,
2013-04-23 04:42:00,46.0,-99.9,30.31,NE,54,26.0,30.0,-999,-99.99,,,-99.99,,2013-04-23 08:42:00,
2013-04-23 04:52:00,46.0,-99.9,30.30,ENE,57,28.0,33.0,-999,-99.99,,,-99.99,,2013-04-23 08:52:00,
2013-04-23 05:02:00,46.0,-99.9,30.30,ENE,57,28.0,32.0,-999,-99.99,,,-99.99,,2013-04-23 09:02:00,
2013-04-23 05:11:00,46.0,-99.9,30.29,NE,55,26.0,30.0,-999,-99.99,,,-99.99,,2013-04-23 09:11:00,
2013-04-23 05:22:00,46.0,-99.9,30.29,ENE,58,29.0,32.0,-999,-99.99,,,-99.99,,2013-04-23 09:22:00,
2013-04-23 05:33:00,47.0,-99.9,30.29,ENE,57,24.0,30.0,-999,-99.99,,,-99.99,,2013-04-23 09:33:00,
2013-04-23 05:43:00,46.0,-99.9,30.29,NE,53,25.0,30.0,-999,-99.99,,,-99.99,,2013-04-23 09:43:00,
2013-04-23 05:53:00,46.0,-99.9,30.29,NE,52,26.0,30.0,-999,-99.99,,,-99.99,,2013-04-23 09:53:00,
2013-04-23 06:03:00,46.0,-99.9,30.28,NE,47,27.0,31.0,-999,-99.99,,,-99.99,,2013-04-23 10:03:00,
2013-04-23 06:13:00,46.0,-99.9,30.28,NE,47,26.0,30.0,-999,-99.99,,,-99.99,,2013-04-23 10:13:00,
2013-04-23 06:23:00,46.0,-99.9,30.28,NE,54,25.0,29.0,-999,-99.99,,,-99.99,,2013-04-23 10:23:00,
2013-04-23 06:33:00,46.0,-99.9,30.29,NE,51,24.0,28.0,-999,-99.99,,,-99.99,,2013-04-23 10:33:00,
2013-04-23 06:43:00,46.0,-99.9,30.29,NE,49,22.0,27.0,-999,-99.99,,,-99.99,,2013-04-23 10:43:00,
2013-04-23 06:53:00,46.0,-99.9,30.30,NE,43,24.0,28.0,-999,-99.99,,,-99.99,,2013-04-23 10:53:00,
2013-04-23 07:03:00,46.0,-99.9,30.29,NE,45,23.0,28.0,-999,-99.99,,,-99.99,,2013-04-23 11:03:00,
2013-04-23 07:12:00,46.0,-99.9,30.29,NE,45,22.0,26.0,-999,-99.99,,,-99.99,,2013-04-23 11:12:00,
2013-04-23 07:22:00,46.0,-99.9,30.29,NE,46,23.0,26.0,-999,-99.99,,,-99.99,,2013-04-23 11:22:00,
2013-04-23 07:33:00,46.0,-99.9,30.29,NE,47,20.0,24.0,-999,-99.99,,,-99.99,,2013-04-23 11:33:00,
2013-04-23 07:43:00,46.0,-99.9,30.29,NE,45,21.0,25.0,-999,-99.99,,,-99.99,,2013-04-23 11:43:00,
2013-04-23 07:53:00,46.0,-99.9,30.29,NE,39,21.0,24.0,-999,-99.99,,,-99.99,,2013-04-23 11:53:00,
2013-04-23 08:02:00,46.0,-99.9,30.29,NE,34,20.0,24.0,-999,-99.99,,,-99.99,,2013-04-23 12:02:00,
2013-04-23 08:12:00,46.0,-99.9,30.29,NE,46,20.0,23.0,-999,-99.99,,,-99.99,,2013-04-23 12:12:00,
2013-04-23 08:22:00,46.0,-99.9,30.29,SSE,152,4.0,14.0,-999,-99.99,,,-99.99,,2013-04-23 12:22:00,
2013-04-23 08:32:00,46.0,-99.9,30.29,NE,46,21.0,24.0,-999,-99.99,,,-99.99,,2013-04-23 12:32:00,
2013-04-23 08:42:00,46.0,-99.9,30.29,NE,47,22.0,27.0,-999,-99.99,,,-99.99,,2013-04-23 12:42:00,
2013-04-23 08:52:00,46.0,-99.9,30.29,NE,47,23.0,26.0,-999,-99.99,,,-99.99,,2013-04-23 12:52:00,
2013-04-23 09:01:00,46.0,-99.9,30.29,NE,46,22.0,25.0,-999,-99.99,,,-99.99,,2013-04-23 13:01:00,
2013-04-23 09:12:00,46.0,-99.9,30.29,NE,49,23.0,26.0,-999,-99.99,,,-99.99,,2013-04-23 13:12:00,
2013-04-23 09:22:00,46.0,-99.9,30.29,NE,47,23.0,27.0,-999,-99.99,,,-99.99,,2013-04-23 13:22:00,
2013-04-23 09:32:00,46.0,-99.9,30.29,NE,47,22.0,26.0,-999,-99.99,,,-99.99,,2013-04-23 13:32:00,
2013-04-23 09:42:00,46.0,-99.9,30.29,NE,43,22.0,26.0,-999,-99.99,,,-99.99,,2013-04-23 13:42:00,
2013-04-23 09:52:00,46.0,-99.9,30.29,NE,43,21.0,24.0,-999,-99.99,,,-99.99,,2013-04-23 13:52:00,
2013-04-23 10:02:00,46.0,-99.9,30.29,NE,50,21.0,24.0,-999,-99.99,,,-99.99,,2013-04-23 14:02:00,
2013-04-23 10:11:00,46.0,-99.9,30.28,NE,48,22.0,26.0,-999,-99.99,,,-99.99,,2013-04-23 14:11:00,
2013-04-23 10:22:00,46.0,-99.9,30.28,ENE,59,22.0,26.0,-999,-99.99,,,-99.99,,2013-04-23 14:22:00,
2013-04-23 10:32:00,46.0,-99.9,30.28,NE,46,20.0,24.0,-999,-99.99,,,-99.99,,2013-04-23 14:32:00,
2013-04-23 10:42:00,46.0,-99.9,30.28,ENE,59,25.0,29.0,-999,-99.99,,,-99.99,,2013-04-23 14:42:00,
2013-04-23 10:52:00,46.0,-99.9,30.28,NE,49,21.0,24.0,-999,-99.99,,,-99.99,,2013-04-23 14:52:00,
2013-04-23 11:01:00,46.0,-99.9,30.28,NE,49,21.0,24.0,-999,-99.99,,,-99.99,,2013-04-23 15:01:00,
2013-04-23 11:12:00,46.0,-99.9,30.28,NE,46,19.0,22.0,-999,-99.99,,,-99.99,,2013-04-23 15:12:00,
2013-04-23 11:22:00,47.0,-99.9,30.27,NE,56,17.0,20.0,-999,-99.99,,,-99.99,,2013-04-23 15:22:00,
2013-04-23 11:32:00,47.0,-99.9,30.26,NNE,25,17.0,20.0,-999,-99.99,,,-99.99,,2013-04-23 15:32:00,
2013-04-23 11:43:00,47.0,-99.9,30.26,NNE,29,18.0,21.0,-999,-99.99,,,-99.99,,2013-04-23 15:43:00,
2013-04-23 11:53:00,47.0,-99.9,30.26,NNE,24,19.0,21.0,-999,-99.99,,,-99.99,,2013-04-23 15:53:00,
2013-04-23 12:03:00,47.0,-99.9,30.26,NNE,25,19.0,22.0,-999,-99.99,,,-99.99,,2013-04-23 16:03:00,
2013-04-23 12:12:00,47.0,-99.9,30.26,NNE,29,20.0,22.0,-999,-99.99,,,-99.99,,2013-04-23 16:12:00,
2013-04-23 12:23:00,47.0,-99.9,30.25,NNE,27,17.0,21.0,-999,-99.99,,,-99.99,,2013-04-23 16:23:00,
2013-04-23 12:34:00,47.0,-99.9,30.24,NNE,20,17.0,20.0,-999,-99.99,,,-99.99,,2013-04-23 16:34:00,
2013-04-23 12:43:00,48.0,-99.9,30.24,NNE,21,16.0,18.0,-999,-99.99,,,-99.99,,2013-04-23 16:43:00,
2013-04-23 12:53:00,48.0,-99.9,30.23,NNE,21,19.0,21.0,-999,-99.99,,,-99.99,,2013-04-23 16:53:00,
2013-04-23 13:03:00,48.0,-99.9,30.23,NNE,23,17.0,20.0,-999,-99.99,,,-99.99,,2013-04-23 17:03:00,
2013-04-23 13:12:00,48.0,-99.9,30.23,NNE,20,18.0,20.0,-999,-99.99,,,-99.99,,2013-04-23 17:12:00,
2013-04-23 13:22:00,48.0,-99.9,30.23,NNE,17,18.0,21.0,-999,-99.99,,,-99.99,,2013-04-23 17:22:00,
2013-04-23 13:33:00,48.0,-99.9,30.23,NNE,29,17.0,20.0,-999,-99.99,,,-99.99,,2013-04-23 17:33:00,
2013-04-23 13:43:00,48.0,-99.9,30.22,NNE,19,16.0,19.0,-999,-99.99,,,-99.99,,2013-04-23 17:43:00,
2013-04-23 13:53:00,48.0,-99.9,30.22,North,11,19.0,21.0,-999,-99.99,,,-99.99,,2013-04-23 17:53:00,
2013-04-23 14:02:00,49.0,-99.9,30.22,NNE,22,18.0,21.0,-999,-99.99,,,-99.99,,2013-04-23 18:02:00,
2013-04-23 14:12:00,49.0,-99.9,30.21,NNE,23,18.0,22.0,-999,-99.99,,,-99.99,,2013-04-23 18:12:00,
2013-04-23 14:22:00,49.0,-99.9,30.20,NNE,20,19.0,22.0,-999,-99.99,,,-99.99,,2013-04-23 18:22:00,
2013-04-23 14:32:00,49.0,-99.9,30.20,NNE,23,17.0,19.0,-999,-99.99,,,-99.99,,2013-04-23 18:32:00,
2013-04-23 14:42:00,49.0,-99.9,30.20,NNE,29,17.0,19.0,-999,-99.99,,,-99.99,,2013-04-23 18:42:00,
2013-04-23 14:52:00,49.0,-99.9,30.20,NNE,25,17.0,19.0,-999,-99.99,,,-99.99,,2013-04-23 18:52:00,
2013-04-23 15:02:00,49.0,-99.9,30.20,NNE,32,17.0,19.0,-999,-99.99,,,-99.99,,2013-04-23 19:02:00,
2013-04-23 15:11:00,49.0,-99.9,30.20,NNE,27,15.0,17.0,-999,-99.99,,,-99.99,,2013-04-23 19:11:00,
2013-04-23 15:22:00,50.0,-99.9,30.21,NNE,21,14.0,15.0,-999,-99.99,,,-99.99,,2013-04-23 19:22:00,
2013-04-23 15:33:00,49.0,-99.9,30.21,NNE,19,14.0,15.0,-999,-99.99,,,-99.99,,2013-04-23 19:33:00,
2013-04-23 15:42:00,49.0,-99.9,30.21,NNE,27,13.0,16.0,-999,-99.99,,,-99.99,,2013-04-23 19:42:00,
2013-04-23 15:52:00,49.0,-99.9,30.21,NNE,25,16.0,19.0,-999,-99.99,,,-99.99,,2013-04-23 19:52:00,
2013-04-23 16:02:00,48.0,-99.9,30.21,NNE,14,14.0,16.0,-999,-99.99,,,-99.99,,2013-04-23 20:02:00,
2013-04-23 16:11:00,49.0,-99.9,30.21,North,10,13.0,15.0,-999,-99.99,,,-99.99,,2013-04-23 20:11:00,
2013-04-23 16:22:00,49.0,-99.9,30.22,East,90,4.0,12.0,-999,-99.99,,,-99.99,,2013-04-23 20:22:00,
2013-04-23 16:32:00,48.0,-99.9,30.21,North,6,16.0,19.0,-999,-99.99,,,-99.99,,2013-04-23 20:32:00,
2013-04-23 16:42:00,48.0,-99.9,30.21,NNE,16,16.0,19.0,-999,-99.99,,,-99.99,,2013-04-23 20:42:00,
2013-04-23 16:52:00,48.0,-99.9,30.20,NNE,17,18.0,20.0,-999,-99.99,,,-99.99,,2013-04-23 20:52:00,
2013-04-23 17:02:00,48.0,-99.9,30.20,North,8,16.0,18.0,-999,-99.99,,,-99.99,,2013-04-23 21:02:00,
2013-04-23 17:12:00,48.0,-99.9,30.20,North,7,15.0,17.0,-999,-99.99,,,-99.99,,2013-04-23 21:12:00,
2013-04-23 17:22:00,48.0,-99.9,30.20,North,7,16.0,18.0,-999,-99.99,,,-99.99,,2013-04-23 21:22:00,
2013-04-23 17:33:00,49.0,-99.9,30.20,North,8,15.0,17.0,-999,-99.99,,,-99.99,,2013-04-23 21:33:00,
2013-04-23 17:43:00,50.0,-99.9,30.19,North,7,14.0,17.0,-999,-99.99,,,-99.99,,2013-04-23 21:43:00,
2013-04-23 17:53:00,49.0,-99.9,30.19,NNE,15,17.0,19.0,-999,-99.99,,,-99.99,,2013-04-23 21:53:00,
2013-04-23 18:03:00,49.0,-99.9,30.17,NNE,24,17.0,18.0,-999,-99.99,,,-99.99,,2013-04-23 22:03:00,
2013-04-23 18:12:00,49.0,-99.9,30.16,NNE,23,16.0,17.0,-999,-99.99,,,-99.99,,2013-04-23 22:12:00,
2013-04-23 18:23:00,50.0,-99.9,30.17,NNE,21,15.0,17.0,-999,-99.99,,,-99.99,,2013-04-23 22:23:00,
2013-04-23 18:33:00,49.0,-99.9,30.16,NNE,31,15.0,17.0,-999,-99.99,,,-99.99,,2013-04-23 22:33:00,
2013-04-23 18:42:00,49.0,-99.9,30.17,NNE,20,16.0,18.0,-999,-99.99,,,-99.99,,2013-04-23 22:42:00,
2013-04-23 18:53:00,49.0,-99.9,30.17,NNE,20,17.0,18.0,-999,-99.99,,,-99.99,,2013-04-23 22:53:00,
2013-04-23 19:03:00,49.0,-99.9,30.17,NNE,16,14.0,15.0,-999,-99.99,,,-99.99,,2013-04-23 23:03:00,
2013-04-23 19:12:00,49.0,-99.9,30.16,NNE,18,15.0,16.0,-999,-99.99,,,-99.99,,2013-04-23 23:12:00,
2013-04-23 19:22:00,49.0,-99.9,30.15,NNE,23,15.0,16.0,-999,-99.99,,,-99.99,,2013-04-23 23:22:00,
2013-04-23 19:32:00,49.0,-99.9,30.14,NE,37,14.0,17.0,-999,-99.99,,,-99.99,,2013-04-23 23:32:00,
2013-04-23 19:42:00,49.0,-99.9,30.14,NNE,26,14.0,15.0,-999,-99.99,,,-99.99,,2013-04-23 23:42:00,
2013-04-23 19:52:00,49.0,-99.9,30.14,NNE,18,13.0,14.0,-999,-99.99,,,-99.99,,2013-04-23 23:52:00,
2013-04-23 20:02:00,49.0,-99.9,30.13,NNE,32,15.0,16.0,-999,-99.99,,,-99.99,,2013-04-24 00:02:00,
2013-04-23 20:12:00,49.0,-99.9,30.13,NE,34,13.0,16.0,-999,-99.99,,,-99.99,,2013-04-24 00:12:00,
2013-04-23 20:22:00,49.0,-99.9,30.13,NE,34,13.0,15.0,-999,-99.99,,,-99.99,,2013-04-24 00:22:00,
2013-04-23 20:32:00,49.0,-99.9,30.14,North,10,11.0,15.0,-999,-99.99,,,-99.99,,2013-04-24 00:32:00,
2013-04-23 20:42:00,49.0,-99.9,30.15,North,7,13.0,16.0,-999,-99.99,,,-99.99,,2013-04-24 00:42:00,
2013-04-23 20:52:00,49.0,-99.9,30.15,North,5,11.0,13.0,-999,-99.99,,,-99.99,,2013-04-24 00:52:00,
2013-04-23 21:02:00,49.0,-99.9,30.16,North,9,11.0,14.0,-999,-99.99,,,-99.99,,2013-04-24 01:02:00,
2013-04-23 21:12:00,49.0,-99.9,30.16,North,7,11.0,14.0,-999,-99.99,,,-99.99,,2013-04-24 01:12:00,
2013-04-23 21:22:00,49.0,-99.9,30.16,NNW,345,13.0,15.0,-999,-99.99,,,-99.99,,2013-04-24 01:22:00,
2013-04-23 21:32:00,49.0,-99.9,30.16,North,350,12.0,14.0,-999,-99.99,,,-99.99,,2013-04-24 01:32:00,
2013-04-23 21:43:00,49.0,-99.9,30.16,North,354,11.0,13.0,-999,-99.99,,,-99.99,,2013-04-24 01:43:00,
2013-04-23 21:52:00,49.0,-99.9,30.16,North,354,12.0,13.0,-999,-99.99,,,-99.99,,2013-04-24 01:52:00,
2013-04-23 22:02:00,49.0,-99.9,30.16,North,354,10.0,13.0,-999,-99.99,,,-99.99,,2013-04-24 02:02:00,
2013-04-23 22:20:00,49.0,-99.9,30.16,North,352,10.0,13.0,-999,-99.99,,,-99.99,,2013-04-24 02:20:00,
2013-04-23 22:30:00,49.0,-99.9,30.16,North,349,10.0,12.0,-999,-99.99,,,-99.99,,2013-04-24 02:30:00,
2013-04-23 22:42:00,49.0,-99.9,30.16,NNW,348,10.0,13.0,-999,-99.99,,,-99.99,,2013-04-24 02:42:00,
2013-04-23 22:51:00,49.0,-99.9,30.16,NNW,348,9.0,11.0,-999,-99.99,,,-99.99,,2013-04-24 02:51:00,
2013-04-23 23:02:00,49.0,-99.9,30.16,NNW,344,10.0,11.0,-999,-99.99,,,-99.99,,2013-04-24 03:02:00,
2013-04-23 23:12:00,50.0,-99.9,30.16,North,349,11.0,12.0,-999,-99.99,,,-99.99,,2013-04-24 03:12:00,
2013-04-23 23:33:00,50.0,-99.9,30.16,NNW,341,8.0,9.0,-999,-99.99,,,-99.99,,2013-04-24 03:33:00,
2013-04-23 23:44:00,50.0,-99.9,30.15,North,357,6.0,8.0,-999,-99.99,,,-99.99,,2013-04-24 03:44:00,
2013-04-23 23:54:00,50.0,-99.9,30.15,North,6,6.0,7.0,-999,-99.99,,,-99.99,,2013-04-24 03:54:00,